GOES-S (43226 NORAD) Tracking and Keplerian Element Data

This shows tracking and keplerian element data for the satellite.

Feedback or suggestion? Click here.




ElementValue
Catalog43226
NameGOES-S
Epoch Orbit263
Epoch Day317.63329041
Epoch Year2018
RAAN90.7172
Inclination0.0344
Eccentricity0.0003236
Argument of Perigee293.977
Mean Anonmoly118.8263
Mean Motion1.00275108
Decay Rate9.6E-07
L11 43226U 18022A 18317.63329041 .00000096 00000-0 00000+0 0 9992
L22 43226 0.0344 90.7172 0003236 293.9770 118.8263 1.00275108 2631

Live tracking and technical data element details for GOES-S (NORAD 43226). GOES-S can be tracked NOW for your location showing map with azimuth and elevation plus other details from your city location.

Track the satellite on the map from your city or location and see movement details for azimuth, elevation, latitude, longitude, range, height, and movement on the map or in text.







IsCatalogInMostPopularTable: catalog: 43226, numindb: 198
Update: records affected: 1



GetName: 43226 GOES-S

Hit Count: updated at: Fri, 16 Nov 2018 05:10:28 GMT